FW0689 Weather Reports


Display with metric or nautical units.
time (UTC)temp
F
wind
direction
speed
MPH
gust
MPH
rain 1hr
in
rain 24hr
in
rain mn
in
humidity
%
barometer
mb
20260502213812 61 22 0.0 0.0 0.00 0.00 0.00 34 1019.0
20260502212812 61 22 0.0 0.0 0.00 0.00 0.00 34 1019.2
20260502211910 61 55 0.0 0.0 0.00 0.00 0.00 34 1019.4
20260502210911 60 110 0.0 0.0 0.00 0.00 0.00 34 1019.6
20260502205911 59 175 0.0 0.0 0.00 0.00 0.00 34 1019.9
20260502204911 60 360 0.0 0.0 0.00 0.00 0.00 34 1019.0
20260502203927 60 360 0.0 0.0 0.00 0.00 0.00 35 1019.0
20260502203011 61 360 0.0 0.0 0.00 0.00 0.00 35 1019.0
20260502202013 61 337 0.0 0.0 0.00 0.00 0.00 35 1019.1
20260502201012 62 337 0.0 0.0 0.00 0.00 0.00 35 1019.3
20260502200012 62 337 0.0 0.0 0.00 0.00 0.00 35 1019.3
20260502195111 62 337 0.0 0.0 0.00 0.00 0.00 35 1019.4
20260502194112 63 337 0.0 0.0 0.00 0.00 0.00 35 1019.4
20260502193211 63 315 0.0 0.0 0.00 0.00 0.00 35 1019.2
20260502192212 64 337 0.0 0.0 0.00 0.00 0.00 35 1019.1
20260502191211 65 336 0.0 0.0 0.00 0.00 0.00 36 1019.0
20260502190212 65 331 0.0 0.0 0.00 0.00 0.00 38 1018.9
20260502185210 66 316 0.0 0.0 0.00 0.00 0.00 42 1019.0
20260502184213 67 316 0.0 0.0 0.00 0.00 0.00 45 1018.8
20260502183212 68 337 0.0 0.0 0.00 0.00 0.00 47 1018.9
20260502182210 69 318 0.0 0.0 0.00 0.00 0.00 48 1018.9
20260502181211 70 312 0.0 0.0 0.00 0.00 0.00 49 1018.7
20260502170509 72 255 0.0 0.0 0.00 0.00 0.00 48 1019.0
20260502162613 73 291 0.0 0.0 0.00 0.00 0.00 47 1019.4
20260502160612 73 263 0.0 0.0 0.00 0.00 0.00 46 1019.6
20260502151712 72 260 0.0 0.0 0.00 0.00 0.00 47 1020.1
20260502150811 73 236 0.0 0.0 0.00 0.00 0.00 47 1020.2
20260502121012 73 220 0.0 0.0 0.00 0.00 0.00 43 1021.5
20260502115010 73 227 0.0 0.0 0.00 0.00 0.00 42 1021.6
20260502114012 73 241 0.0 0.0 0.00 0.00 0.00 42 1021.8
20260502113012 72 248 0.0 0.0 0.00 0.00 0.00 42 1021.8
20260502112012 72 222 0.0 0.0 0.00 0.00 0.00 42 1021.9
20260502111028 72 222 0.0 0.0 0.00 0.00 0.00 42 1021.9
20260502105011 72 189 0.0 0.0 0.00 0.00 0.00 40 1022.0
20260502104109 72 226 0.0 0.0 0.00 0.00 0.00 40 1022.1
20260502103111 71 182 0.0 0.0 0.00 0.00 0.00 40 1022.2
20260502102113 70 204 0.0 0.0 0.00 0.00 0.00 40 1022.4
20260502101211 70 251 0.0 0.0 0.00 0.00 0.00 40 1022.4
20260502100213 70 229 0.0 0.0 0.00 0.00 0.00 39 1022.7
20260502091310 66 235 0.0 0.0 0.00 0.00 0.00 41 1022.9
20260502070813 61 201 0.0 0.0 0.00 0.00 0.00 45 1023.3
20260502065910 60 197 0.0 0.0 0.00 0.00 0.00 44 1023.5
20260502064911 59 196 0.0 0.0 0.00 0.00 0.00 44 1023.5
20260502064011 59 171 0.0 0.0 0.00 0.00 0.00 43 1023.5
20260502063110 58 160 0.0 0.0 0.00 0.00 0.00 42 1023.4
20260502062112 57 152 0.0 0.0 0.00 0.00 0.00 41 1023.5
20260502061211 56 132 0.0 0.0 0.00 0.00 0.00 41 1023.5
20260502060211 54 180 0.0 0.0 0.00 0.00 0.00 40 1023.6
20260502055212 53 114 0.0 0.0 0.00 0.00 0.00 40 1023.7
20260502054212 51 165 0.0 0.0 0.00 0.00 0.00 40 1023.7
20260502053310 50 119 0.0 0.0 0.00 0.00 0.00 40 1023.6
20260502051311 47 112 0.0 0.0 0.00 0.00 0.00 40 1023.5
20260502050311 46 112 0.0 0.0 0.00 0.00 0.00 41 1023.5
20260502044409 46 112 0.0 0.0 0.00 0.00 0.00 41 1023.5
20260502041411 45 112 0.0 0.0 0.00 0.00 0.00 42 1023.5
20260502035411 46 112 0.0 0.0 0.00 0.00 0.00 42 1023.7
20260502034412 46 112 0.0 0.0 0.00 0.00 0.00 42 1023.8
20260502033511 46 112 0.0 0.0 0.00 0.00 0.00 42 1023.8
20260502032511 46 112 0.0 0.0 0.00 0.00 0.00 42 1023.8
20260502031511 46 112 0.0 0.0 0.00 0.00 0.00 42 1023.8
20260502030509 46 112 0.0 0.0 0.00 0.00 0.00 42 1023.9
20260502025512 46 112 0.0 0.0 0.00 0.00 0.00 42 1024.0
20260502024512 46 112 0.0 0.0 0.00 0.00 0.00 42 1024.0
20260502023509 46 112 0.0 0.0 0.00 0.00 0.00 41 1024.0
20260502022511 46 112 0.0 0.0 0.00 0.00 0.00 42 1024.2
20260502021510 46 112 0.0 0.0 0.00 0.00 0.00 42 1024.1
20260502020511 47 112 0.0 0.0 0.00 0.00 0.00 42 1024.1
20260502014512 47 112 0.0 0.0 0.00 0.00 0.00 42 1024.4
20260502013511 47 112 0.0 0.0 0.00 0.00 0.00 42 1024.5
20260502012610 47 112 0.0 0.0 0.00 0.00 0.00 41 1024.6
20260502011612 46 112 0.0 0.0 0.00 0.00 0.00 41 1024.7
20260502010709 46 112 0.0 0.0 0.00 0.00 0.00 42 1024.7
20260502005711 47 112 0.0 0.0 0.00 0.00 0.00 42 1025.0
20260502004810 48 112 0.0 0.0 0.00 0.00 0.00 42 1025.1
20260502003811 48 112 0.0 0.0 0.00 0.00 0.00 41 1025.1
20260502000009 45 112 0.0 0.0 0.00 0.00 0.00 41 1025.4
20260501235012 45 112 0.0 0.0 0.00 0.00 0.00 41 1025.4
20260501234012 47 112 0.0 0.0 0.00 0.00 0.00 40 1025.4
20260501233110 47 112 0.0 0.0 0.00 0.00 0.00 40 1025.5
20260501232111 47 112 0.0 0.0 0.00 0.00 0.00 40 1025.5
20260501231210 46 112 0.0 0.0 0.00 0.00 0.00 41 1025.5
20260501230212 47 112 0.0 0.0 0.00 0.00 0.00 41 1025.7
20260501225211 47 112 0.0 0.0 0.00 0.00 0.00 41 1025.7
20260501224226 48 112 0.0 0.0 0.00 0.00 0.00 41 1025.8
20260501223312 47 112 0.0 0.0 0.00 0.00 0.00 41 1025.8
20260501222410 47 112 0.0 0.0 0.00 0.00 0.00 42 1025.8
20260501221412 48 112 0.0 0.0 0.00 0.00 0.00 43 1025.8
20260501220410 48 112 0.0 0.0 0.00 0.00 0.00 46 1025.9
20260501215410 49 112 0.0 0.0 0.00 0.00 0.00 49 1026.1